Latest Weather Observations for Jimna

IDQ60801

Issued at 9:35 am EST Saturday 29 November 2014 (issued every 30 minutes, with the page automatically refreshed every 10 minutes)

About weather observations | Map of weather stations | Latest weather observations for QLD | Other Formats
Station Details ID: 040651 Name: JIMNA FORESTRY Lat: -26.66 Lon: 152.46 Height: 523.0 m
Data from the previous 72 hours. | See also: Recent months at Jimna
Date/Time
EST
Temp
°C
App
Temp
°C
Dew
Point
Rel
Hum
%
Delta-T
°C
Wind Press
QNH
hPa
Press
MSL
hPa
Rain
since 9 am
mm
Dir
 
Spd
km/h
Gust
km/h
Spd
kts
Gust
kts
29/09:30am 22.2 - 12.5 54 5.6 - - - - - - - 0.0
29/09:00am 20.4 - 13.1 63 4.3 - - - - - - - 0.4
29/08:30am 21.4 - 13.6 61 4.6 - - - - - - - 0.4
29/08:00am 19.5 - 13.4 68 3.6 - - - - - - - 0.4
29/07:30am 19.1 - 14.1 73 2.9 - - - - - - - 0.4
29/07:00am 18.0 - 14.5 80 2.1 - - - - - - - 0.4
29/06:30am 17.5 - 14.8 84 1.6 - - - - - - - 0.4
29/06:00am 17.0 - 14.1 83 1.7 - - - - - - - 0.4
29/05:30am 16.9 - 14.4 85 1.5 - - - - - - - 0.4
29/05:00am 16.2 - 13.7 85 1.4 - - - - - - - 0.4
29/04:30am 16.6 - 13.9 84 1.6 - - - - - - - 0.4
29/04:00am 16.4 - 14.1 86 1.3 - - - - - - - 0.4
29/03:30am 16.4 - 13.9 85 1.5 - - - - - - - 0.4
29/03:00am 16.8 - 13.7 82 1.8 - - - - - - - 0.4
29/02:30am 17.2 - 14.1 82 1.8 - - - - - - - 0.4
29/02:00am 17.2 - 14.1 82 1.8 - - - - - - - 0.4
29/01:30am 17.3 - 14.2 82 1.8 - - - - - - - 0.4
29/01:00am 17.3 - 14.2 82 1.8 - - - - - - - 0.4
29/12:30am 17.4 - 14.3 82 1.8 - - - - - - - 0.4
29/12:00am 17.5 - 14.2 81 1.9 - - - - - - - 0.4
 
Date/Time
EST
Temp
°C
App
Temp
°C
Dew
Point
Rel
Hum
%
Delta-T
°C
Wind Press
QNH
hPa
Press
MSL
hPa
Rain
since 9 am
mm
Dir
 
Spd
km/h
Gust
km/h
Spd
kts
Gust
kts
28/11:30pm 17.7 - 14.4 81 1.9 - - - - - - - 0.4
28/11:00pm 17.8 - 14.7 82 1.8 - - - - - - - 0.4
28/10:30pm 17.9 - 14.4 80 2.1 - - - - - - - 0.4
28/10:00pm 18.2 - 15.1 82 1.9 - - - - - - - 0.4
28/09:30pm 18.4 - 15.3 82 1.9 - - - - - - - 0.4
28/09:00pm 18.3 - 15.2 82 1.9 - - - - - - - 0.4
28/08:30pm 18.3 - 15.0 81 2.0 - - - - - - - 0.4
28/08:00pm 18.4 - 15.1 81 2.0 - - - - - - - 0.4
28/07:30pm 18.3 - 15.4 83 1.7 - - - - - - - 0.4
28/07:00pm 18.5 - 15.6 83 1.8 - - - - - - - 0.4
28/06:30pm 18.5 - 15.6 83 1.8 - - - - - - - 0.4
28/06:00pm 18.7 - 15.6 82 1.9 - - - - - - - 0.2
28/05:30pm 19.1 - 16.0 82 1.9 - - - - - - - 0.2
28/05:00pm 19.9 - 15.3 75 2.8 - - - - - - - 0.2
28/04:30pm 20.6 - 15.6 73 3.0 - - - - - - - 0.2
28/04:00pm 21.2 - 15.7 71 3.4 - - - - - - - 0.2
28/03:30pm 21.9 - 15.7 68 3.8 - - - - - - - 0.2
28/03:00pm 21.2 - 15.5 70 3.5 - - - - - - - 0.2
28/02:30pm 21.5 - 16.2 72 3.3 - - - - - - - 0.2
28/02:00pm 20.0 - 15.2 74 2.9 - - - - - - - 0.2
28/01:30pm 23.6 - 15.9 62 4.8 - - - - - - - 0.0
28/01:00pm 22.6 - 16.2 67 4.0 - - - - - - - 0.0
28/12:30pm 22.3 - 15.9 67 3.9 - - - - - - - 0.0
28/12:00pm 20.9 - 16.1 74 2.9 - - - - - - - 0.0
28/11:30am 21.9 - 16.6 72 3.3 - - - - - - - 0.0
28/11:00am 22.1 - 16.4 70 3.5 - - - - - - - 0.0
28/10:30am 20.6 - 16.0 75 2.8 - - - - - - - 0.0
28/10:00am 21.8 - 15.2 66 4.0 - - - - - - - 0.0
28/09:30am 21.6 - 16.3 72 3.3 - - - - - - - 0.0
28/09:00am 20.8 - 17.4 81 2.1 - - - - - - - 0.8
28/08:30am 20.5 - 16.3 77 2.6 - - - - - - - 0.8
28/08:00am 20.1 - 16.5 80 2.2 - - - - - - - 0.8
28/07:30am 19.8 - 16.1 79 2.3 - - - - - - - 0.8
28/07:00am 19.2 - 16.2 83 1.8 - - - - - - - 0.8
28/06:30am 18.8 - 16.4 86 1.5 - - - - - - - 0.8
28/06:00am 18.5 - 16.1 86 1.5 - - - - - - - 0.8
28/05:30am 18.3 - 15.9 86 1.5 - - - - - - - 0.8
28/05:00am 18.5 - 16.5 88 1.2 - - - - - - - 0.8
28/04:30am 18.5 - 16.5 88 1.2 - - - - - - - 0.8
28/04:00am 18.5 - 16.7 89 1.1 - - - - - - - 0.8
28/03:30am 18.0 - 16.3 90 1.0 - - - - - - - 0.8
28/03:00am 18.1 - 16.4 90 1.0 - - - - - - - 0.8
28/02:30am 18.0 - 16.3 90 1.0 - - - - - - - 0.8
28/02:00am 17.8 - 16.1 90 1.0 - - - - - - - 0.8
28/01:30am 17.7 - 15.7 88 1.2 - - - - - - - 0.8
28/01:00am 17.9 - 15.7 87 1.3 - - - - - - - 0.8
28/12:30am 18.0 - 15.3 84 1.6 - - - - - - - 0.8
28/12:00am 19.3 - 15.0 76 2.6 - - - - - - - 0.6
 
Date/Time
EST
Temp
°C
App
Temp
°C
Dew
Point
Rel
Hum
%
Delta-T
°C
Wind Press
QNH
hPa
Press
MSL
hPa
Rain
since 9 am
mm
Dir
 
Spd
km/h
Gust
km/h
Spd
kts
Gust
kts
27/11:30pm 19.7 - 17.1 85 1.6 - - - - - - - 0.6
27/11:00pm 19.7 - 17.3 86 1.5 - - - - - - - 0.6
27/10:30pm 19.5 - 17.3 87 1.4 - - - - - - - 0.6
27/10:00pm 19.1 - 16.5 85 1.6 - - - - - - - 0.6
27/09:30pm 19.3 - 16.5 84 1.7 - - - - - - - 0.6
27/09:00pm 19.4 - 16.6 84 1.7 - - - - - - - 0.6
27/08:30pm 19.1 - 16.5 85 1.6 - - - - - - - 0.6
27/08:00pm 18.8 - 16.6 87 1.4 - - - - - - - 0.6
27/07:30pm 18.7 - 16.1 85 1.6 - - - - - - - 0.6
27/07:00pm 19.3 - 15.0 76 2.6 - - - - - - - 0.4
27/06:30pm 23.8 - 15.6 60 5.1 - - - - - - - 0.0
27/06:00pm 24.7 - 15.6 57 5.6 - - - - - - - 0.0
27/05:30pm 25.2 - 15.8 56 5.8 - - - - - - - 0.0
27/05:00pm 25.4 - 16.0 56 5.9 - - - - - - - 0.0
27/04:30pm 26.4 - 16.0 52 6.5 - - - - - - - 0.0
27/04:00pm 27.1 - 16.4 52 6.8 - - - - - - - 0.0
27/03:30pm 30.0 - 11.5 32 11.0 - - - - - - - 0.0
27/03:00pm 29.4 - 11.9 34 10.4 - - - - - - - 0.0
27/02:30pm 30.5 - 11.9 31 11.1 - - - - - - - 0.0
27/02:00pm 30.2 - 13.0 34 10.4 - - - - - - - 0.0
27/01:30pm 29.2 - 13.0 37 9.8 - - - - - - - 0.0
27/01:00pm 29.2 - 13.0 37 9.8 - - - - - - - 0.0
27/12:30pm 28.5 - 15.8 46 8.0 - - - - - - - 0.0
27/12:00pm 27.3 - 14.0 44 8.1 - - - - - - - 0.0
27/11:30am 26.6 - 13.0 43 8.1 - - - - - - - 0.0
27/11:00am 26.5 - 14.3 47 7.4 - - - - - - - 0.0
27/10:30am 27.0 - 14.4 46 7.7 - - - - - - - 0.0
27/10:00am 25.2 - 14.9 52 6.3 - - - - - - - 0.0
27/09:30am 24.8 - 16.0 58 5.5 - - - - - - - 0.0
27/09:00am 23.5 - 15.3 60 5.0 - - - - - - - 0.0
27/08:30am 23.9 - 16.4 63 4.7 - - - - - - - 0.0
27/08:00am 22.1 - 16.1 69 3.7 - - - - - - - 0.0
27/07:30am 21.2 - 16.8 76 2.7 - - - - - - - 0.0
27/07:00am 20.3 - 17.3 83 1.9 - - - - - - - 0.0
27/06:30am 19.3 - 17.3 88 1.2 - - - - - - - 0.0
27/06:00am 18.4 - 16.6 89 1.1 - - - - - - - 0.0
27/05:30am 18.2 - 16.4 89 1.1 - - - - - - - 0.0
27/05:00am 18.2 - 16.2 88 1.2 - - - - - - - 0.0
27/04:30am 18.6 - 16.4 87 1.3 - - - - - - - 0.0
27/04:00am 19.0 - 16.8 87 1.4 - - - - - - - 0.0
27/03:30am 18.9 - 16.7 87 1.4 - - - - - - - 0.0
27/03:00am 18.8 - 16.8 88 1.2 - - - - - - - 0.0
27/02:30am 18.9 - 16.7 87 1.4 - - - - - - - 0.0
27/02:00am 18.9 - 16.9 88 1.2 - - - - - - - 0.0
27/01:30am 18.9 - 16.9 88 1.2 - - - - - - - 0.0
27/01:00am 18.9 - 16.9 88 1.2 - - - - - - - 0.0
27/12:30am 18.9 - 16.9 88 1.2 - - - - - - - 0.0
27/12:00am 19.0 - 17.0 88 1.2 - - - - - - - 0.0
 
Date/Time
EST
Temp
°C
App
Temp
°C
Dew
Point
Rel
Hum
%
Delta-T
°C
Wind Press
QNH
hPa
Press
MSL
hPa
Rain
since 9 am
mm
Dir
 
Spd
km/h
Gust
km/h
Spd
kts
Gust
kts
26/11:30pm 19.0 - 16.6 86 1.5 - - - - - - - 0.0
26/11:00pm 19.3 - 16.7 85 1.6 - - - - - - - 0.0
26/10:30pm 19.6 - 16.4 82 2.0 - - - - - - - 0.0
26/10:00pm 19.8 - 16.6 82 2.0 - - - - - - - 0.0
26/09:30pm 20.1 - 16.3 79 2.3 - - - - - - - 0.0
26/09:00pm 20.6 - 16.4 77 2.6 - - - - - - - 0.0
26/08:30pm 21.2 - 16.6 75 2.9 - - - - - - - 0.0
26/08:00pm 21.3 - 16.7 75 2.9 - - - - - - - 0.0
26/07:30pm 21.5 - 16.5 73 3.1 - - - - - - - 0.0
26/07:00pm 22.2 - 16.2 69 3.7 - - - - - - - 0.0
26/06:30pm 22.7 - 16.3 67 4.0 - - - - - - - 0.0
26/06:00pm 23.4 - 16.4 64 4.4 - - - - - - - 0.0
26/05:30pm 24.0 - 16.3 62 4.8 - - - - - - - 0.0
26/05:00pm 24.7 - 16.4 60 5.2 - - - - - - - 0.0
26/04:30pm 25.1 - 16.3 58 5.5 - - - - - - - 0.0
26/04:00pm 26.2 - 15.9 53 6.4 - - - - - - - 0.0
26/03:30pm 26.9 - 15.9 51 6.9 - - - - - - - 0.0
26/03:00pm 27.6 - 13.5 41 8.5 - - - - - - - 0.0
26/02:30pm 28.7 - 12.2 36 9.8 - - - - - - - 0.0
26/02:00pm 29.1 - 13.3 37 9.6 - - - - - - - 0.0
26/01:30pm 28.8 - 11.4 34 10.2 - - - - - - - 0.0
26/01:00pm 28.3 - 12.6 38 9.4 - - - - - - - 0.0
26/12:30pm 27.1 - 13.1 42 8.4 - - - - - - - 0.0
26/12:00pm 27.4 - 13.0 41 8.6 - - - - - - - 0.0
26/11:30am 26.3 - 13.8 46 7.6 - - - - - - - 0.0
26/11:00am 26.5 - 12.2 41 8.4 - - - - - - - 0.0
26/10:30am 26.8 - 13.5 44 8.0 - - - - - - - 0.0
26/10:00am 25.2 - 14.3 50 6.6 - - - - - - - 0.0

Other Formats:

Comma delimited format used in spreadsheet applications
http://www.bom.gov.au/fwo/IDQ60801/IDQ60801.94557.axf

JavaScript Object Notation format (JSON) in row-major order
http://www.bom.gov.au/fwo/IDQ60801/IDQ60801.94557.json